C/2022 L2 ( ATLAS )

Japanese version
Home page
Updated on September 29, 2022

---------------------------------------------------------------------

* Profile

Discovery Date June 10, 2022
Magnitude 18.4 mag
Discoverer Asteroid Terrestrial-Impact Last Alert System (ATLAS) search program

* Pictures

* Orbital Elements

Epoch 2022 Aug. 9.0 TT = JDT 2459800.5
T 2024 Mar. 12.46381 TT                                 Rudenko
q   2.6909522            (2000.0)            P               Q
z  -0.0003028      Peri.  199.98821     -0.86477810     -0.11197292
 +/-0.0000173      Node    39.24833     -0.28643806     +0.91066933
e   1.0008148      Incl.  129.31208     -0.41244646     -0.39767253
From 592 observations 2022 May 20-Sept. 8, mean residual 0".5.

* Finding Charts

* Magnitudes Graph

        m1 = 6.0 + 5 log d + 10.0 log r

---------------------------------------------------------------------

The orbital elements are published on M.P.E.C. 2022-R139.
The charts are made with StellaNavigator Ver.10 (AstroArts).
The magnitudes graphs are made with Comet for Windows.

---------------------------------------------------------------------

Copyright(C) Seiichi Yoshida (comet@aerith.net). All rights reserved.